Tracking 17138 objects as of 2-July-2015
HD Live streaming from Space Station

DMSP 5D-2 F11 DEB

Track DMSP 5D-2 F11 DEB now!
10-day predictions
DMSP 5D-2 F11 DEB is classified as:


NORAD ID: 29070
Int'l Code: 1991-082BR
Perigee: 788.9 km
Apogee: 813.8 km
Inclination: 98.8 °
Period: 100.8 minutes
Semi major axis: 7172 km
RCS: 0.0089 m2 (small)
Launch date: November 28, 1991
Source: United States (US)

Note: This is SATELLITE DEBRIS
Your satellite tracking list
Your tracking list is empty





NASA's NSSDC Master Catalog

Two Line Element Set (TLE):
1 29070U 91082BR  15182.21031857  .00001381  00000-0  55994-3 0  9990
2 29070 098.7942 184.1842 0017343 091.0421 269.2747 14.29267089563179

Source of the keplerian elements: AFSPC

N2YO: 224